Hourly Weather Roundup
Issued by NWS Central Illinois

Home | Current Version | Previous Version | Graphics & Text | Print | Product List | Glossary On
Versions: 1 2 3 4 5 6 7 8 9 10 11 12 13 14 15 16 17 18 19 20 21 22 23 24 25 26 27 28 29 30 31 32 33 34 35 36 37 38 39 40 41 42 43 44 45 46 47 48 49 50
000
NZUS43 KILX 210410
HWRILX

AREA WEATHER ROUNDUP
NATIONAL WEATHER SERVICE, LINCOLN IL
1100 PM CDT MON OCT 20 2014


CITY           SKY/WX    TMP DP  RH WIND       PRES   REMARKS
BLOOMINGTON    CLEAR     50  44  79 NE8       30.02R
CHAMPAIGN      MOCLDY    54  46  74 NE8       30.00R
DECATUR        CLEAR     52  44  74 W5        30.01R
FLORA          CLEAR     53  44  69 W6        30.01S
GALESBURG      CLEAR     45  41  86 CALM      30.02R
JACKSONVILLE   CLEAR     50  44  82 W3        30.01S
LACON          CLEAR     46  39  76 CALM      30.02R
LAWRENCEVILLE  CLEAR     51  44  77 NW6       29.99R
LITCHFIELD     CLEAR     47  42  84 CALM      30.02R
$$


CITY           SKY/WX    TMP DP  RH WIND       PRES   REMARKS
LINCOLN        CLEAR     50  44  81 CALM      29.99S
MACOMB         CLEAR     45  42  88 NW7       30.03S
MATTOON        CLOUDY    54  43  66 W6        29.99R
MT CARMEL AP   CLEAR     52  45  76 CALM      29.99S
OLNEY-NOBLE AP CLEAR     50  43  76 CALM      30.00S
PARIS          MOCLDY    52  46  79 NE3       30.00R
PEORIA         CLEAR     53  44  71 NE8       30.02R
PONTIAC        CLEAR     48  45  87 CALM      30.01R
RANTOUL        MOCLDY    54  47  75 NE6       30.01R
ROBINSON       CLEAR     52  46  78 W7        30.00R
SPRINGFIELD    CLEAR     48  42  80 SW3       30.01R
TAYLORVILLE    CLEAR     48  43  81 W5        30.00S
$$

...REGIONAL REPORTS...


CITY           SKY/WX    TMP DP  RH WIND       PRES   REMARKS
CHICAGO O`HARE MOCLDY    52  41  66 N9        30.00R
KANKAKEE       CLOUDY    52  49  88 CALM      30.01R
MOLINE         CLEAR     46  41  82 SE3       30.03R
MOUNT VERNON   CLEAR     46  41  81 CALM      30.02S
PITTSFIELD     CLEAR     52  45  76 W5        30.03S
QUINCY         CLEAR     55  43  63 W5        30.02S
ROCKFORD       MOCLDY    49  40  71 N6        30.04S
$$


CITY           SKY/WX    TMP DP  RH WIND       PRES   REMARKS
BURLINGTON     CLEAR     50  43  77 NW7       30.02R
CEDAR RAPIDS   CLEAR     47  40  76 VRB6      30.03R
DES MOINES     CLEAR     55  41  59 CALM      30.05R
KIRKSVILLE     CLEAR     46  44  93 W3        30.06R
OTTUMWA        CLEAR     45  41  86 W3        30.04R
ST LOUIS       CLEAR     54  46  74 SW5       30.03S
$$


CITY           SKY/WX    TMP DP  RH WIND       PRES   REMARKS
TERRE HAUTE    CLEAR     54  44  69 NW5       29.99R
EVANSVILLE     CLEAR     58  44  60 NW6       30.00R
INDIANAPOLIS   CLOUDY    54  46  74 N12       29.96R
LAFAYETTE      CLOUDY    51  47  86 N3        29.98R
MADISON        CLOUDY    51  38  60 N7        30.03S
MILWAUKEE      MOCLDY    51  42  71 N7        30.01S
$$





USA.gov is the U.S. government's official web portal to all federal, state and local government web resources and services.